This is the latest recevied weather packets stored in our database for station/object W9WRP. If no packets are shown the sender has not sent any weather packets the latest 10 day(s).
| Time | Temp. | Humidity | Pressure | Rain* | Wind** | Luminosity | Snow |
|---|---|---|---|---|---|---|---|
| 1787868825 | 42.78° C | 17% | 1012.2 hPa | 0 mm | - | 216 W/m² | - |
| 1787868524 | 43.33° C | 17% | 1012.6 hPa | 0 mm | - | 187 W/m² | - |
| 1787868223 | 42.78° C | 17% | 1012.3 hPa | 0 mm | - | 267 W/m² | - |
| 1787867919 | 42.78° C | 17% | 1012.6 hPa | 0 mm | - | 410 W/m² | - |
| 1787867614 | 42.78° C | 18% | 1012.6 hPa | 0 mm | - | 544 W/m² | - |
| 1787867314 | 45° C | 17% | 1012.7 hPa | 0 mm | - | 567 W/m² | - |
| 1787867010 | 43.89° C | 17% | 1012.6 hPa | 0 mm | - | 604 W/m² | - |
| 1787866705 | 42.78° C | 18% | 1013.2 hPa | 0 mm | - | 581 W/m² | - |
| 1787866404 | 41.67° C | 19% | 1013.2 hPa | 0 mm | - | 426 W/m² | - |
| 1787866099 | 42.22° C | 18% | 1013.3 hPa | 0 mm | - | 331 W/m² | - |
| 1787865794 | 42.22° C | 18% | 1013.4 hPa | 0 mm | - | 211 W/m² | - |
| 1787865489 | 42.78° C | 18% | 1013.7 hPa | 0 mm | - | 228 W/m² | - |
| 1787865183 | 42.22° C | 18% | 1013.7 hPa | 0 mm | - | 404 W/m² | - |
| 1787864875 | 43.89° C | 17% | 1013.6 hPa | 0 mm | - | 631 W/m² | - |
| 1787864574 | 42.78° C | 18% | 1013.9 hPa | 0 mm | - | 673 W/m² | - |
| 1787864269 | 42.78° C | 18% | 1014 hPa | 0 mm | - | 636 W/m² | - |
| 1787863963 | 42.78° C | 18% | 1014.1 hPa | 0 mm | - | 677 W/m² | - |
| 1787863662 | 42.78° C | 19% | 1013.9 hPa | 0 mm | - | 681 W/m² | - |
| 1787863360 | 42.78° C | 18% | 1014 hPa | 0 mm | - | 685 W/m² | - |
| 1787863058 | 41.67° C | 20% | 1014.2 hPa | 0 mm | - | 617 W/m² | - |
| 1787862758 | 42.22° C | 19% | 1014.3 hPa | 0 mm | - | 689 W/m² | - |
| 1787862457 | 42.22° C | 19% | 1014.4 hPa | 0 mm | - | 690 W/m² | - |
| 1787862152 | 41.67° C | 20% | 1014.5 hPa | 0 mm | - | 695 W/m² | - |
| 1787861847 | 42.22° C | 20% | 1014.7 hPa | 0 mm | - | 699 W/m² | - |
| 1787861546 | 42.78° C | 19% | 1014.5 hPa | 0 mm | - | 703 W/m² | - |
* Rain latest hour (hover to see other rain measurements)
** Current wind speed in m/s (hover to see current wind gust speed)